Regional Weather Roundup
Issued by NWS

Home | Current Version | Previous Version | Text Only | Print | Product List | Glossary Off
Versions: 1 2 3 4 5 6 7 8 9 10 11 12 13 14 15 16 17 18 19 20 21 22 23 24 25 26 27 28 29 30 31 32 33 34 35 36 37 38 39 40 41 42 43 44 45 46 47 48 49 50

189
ASUS45 KBOI 262110
RWRID

IDAHO REGIONAL WEATHER ROUNDUP
NATIONAL WEATHER SERVICE BOISE ID
300 PM MDT WED JUL 26 2017

NOTE: "FAIR" INDICATES FEW OR NO CLOUDS BELOW 12000 FEET
WITH NO SIGNIFICANT WEATHER AND/OR OBSTRUCTIONS TO VISIBILITY

IDZ012-014-262200-
SOUTHWEST IDAHO


CITY           SKY/WX    TMP DP  RH WIND       PRES   REMARKS
BOISE          SUNNY     92  51  24 NE6       30.05F
CALDWELL       SUNNY     92  57  30 N6        30.04F HX  90
MOUNTAIN HOME  SUNNY     93  54  27 E7        30.04F HX  90
$$

IDZ016-017-262200-
SOUTHCENTRAL IDAHO


CITY           SKY/WX    TMP DP  RH WIND       PRES   REMARKS
BURLEY         MOSUNNY   86  53  32 VRB5      30.12F
JEROME         SUNNY     88  50  27 VRB5      30.13F
TWIN FALLS     SUNNY     86  55  34 NE8       30.12F
$$

IDZ019>023-262200-
SOUTHEAST IDAHO


CITY           SKY/WX    TMP DP  RH WIND       PRES   REMARKS
IDAHO FALLS    MOSUNNY   78  60  53 SE8       30.22F
POCATELLO      MOSUNNY   83  58  42 CALM      30.17F
REXBURG        PTSUNNY   75  53  46 VRB3      30.23F
$$

IDZ006-010-011-018-031-032-262200-
CENTRAL IDAHO MOUNTAINS


CITY           SKY/WX    TMP DP  RH WIND       PRES   REMARKS
MCCALL         CLOUDY    75  45  34 S7        30.22F
HAILEY         PTSUNNY   79  55  44 SE8       30.23F
STANLEY          N/A     67  55  65 N8        30.36S
SALMON         NOT AVBL
CHALLIS        CLOUDY    72  54  53 SE8       30.22F
$$

IDZ002-004-006-007-026-262200-
NORTHERN IDAHO


CITY           SKY/WX    TMP DP  RH WIND       PRES   REMARKS
LEWISTON       PTSUNNY   95  40  14 VRB3      29.97F HX  91
LOWELL           N/A     94  49  21 CALM      29.95F HX  90
COEUR D`ALENE  SUNNY     90  42  18 W8        30.03F
MULLAN PASS    SUNNY     74  34  23 VRB5      30.25F
$$




USA.gov is the U.S. government's official web portal to all federal, state and local government web resources and services.